Location: Newark
(48.9886°N, 1.2358°E)
Time: 07:01:23
(UTC+00:00)

Transit 2A Rocket - Visible Passes

Search period start: 15 November 2019 00:00
Search period end: 25 November 2019 00:00
Orbit: 594 x 909 km, 66.7° (Epoch: 14 November)

Date Brightness Start Highest point End Pass type
(mag) Time Alt. Az. Time Alt. Az. Time Alt. Az.
15 Nov 6.4 05:40:53 10° NNW 05:44:31 25° NE 05:48:11 10° E visible
16 Nov 6.8 04:58:48 11° N 05:01:40 18° NNE 05:04:41 10° ENE visible
17 Nov 7.0 04:17:33 12° N 04:18:43 13° NNE 04:20:52 10° ENE visible
17 Nov 5.2 05:58:01 10° NNW 06:02:15 52° NE 06:06:37 10° SE visible
18 Nov 6.0 05:16:15 13° NNW 05:19:34 33° NE 05:23:36 10° ESE visible
19 Nov 6.5 04:35:05 18° N 04:36:48 22° NE 04:40:18 10° E visible
19 Nov 4.6 06:15:24 10° NW 06:19:43 67° WSW 06:24:13 10° SSE visible
20 Nov 7.0 03:53:58 16° NNE 03:53:58 16° NNE 03:56:41 10° ENE visible
20 Nov 4.7 05:33:53 17° NNW 05:37:12 73° NE 05:41:43 10° SE visible
21 Nov 5.5 04:52:48 28° N 04:54:36 44° NE 04:58:54 10° ESE visible
21 Nov 5.7 06:33:16 10° WNW 06:36:57 27° WSW 06:40:46 10° S visible
22 Nov 6.2 04:11:47 28° NE 04:11:53 29° NE 04:15:46 10° ESE visible
22 Nov 4.9 05:51:43 19° NW 05:54:35 46° WSW 05:58:56 10° SSE visible
23 Nov 7.3 03:30:50 16° ENE 03:30:50 16° ENE 03:32:22 10° E visible
23 Nov 4.4 05:10:46 44° NW 05:12:07 81° WSW 05:16:41 10° SSE visible
24 Nov 5.0 04:29:52 59° ENE 04:29:52 59° ENE 04:34:04 10° SE visible
24 Nov 6.1 06:09:48 15° W 06:11:43 19° WSW 06:14:57 10° SSW visible
